Regional Weather Roundup
Issued by NWS

Home | Current Version | Previous Version | Graphics & Text | Print | Product List | Glossary On
Versions: 1 2 3 4 5 6 7 8 9 10 11 12 13 14 15 16 17 18 19 20 21 22 23 24 25 26 27 28 29 30 31 32 33 34 35 36 37 38 39 40 41 42 43 44 45 46 47 48 49 50
000
ASUS43 KFSD 241302
RWRSD

WEATHER ROUNDUP FOR SOUTH DAKOTA
NATIONAL WEATHER SERVICE SIOUX FALLS SD
800 AM CDT SAT JUN 24 2017

NOTE: "FAIR" INDICATES FEW OR NO CLOUDS BELOW 12,000 FEET WITH NO
SIGNIFICANT WEATHER AND/OR OBSTRUCTIONS TO VISIBILITY.


SDZ001>005-009-010-012>017-241400-
NORTHWEST AND NORTH CENTRAL SOUTH DAKOTA

CITY           SKY/WX    TMP DP  RH WIND       PRES   REMARKS
BUFFALO          N/A     54  32  43 NW15      30.18R
FAITH            N/A     53  35  50 NW13      30.20R
MOBRIDGE       MOSUNNY   54  39  57 NW13      30.13S
$$

SDZ012>016-024>037-041>051-057-063-072>074-241400-
SOUTHWEST AND SOUTH CENTRAL SOUTH DAKOTA

CITY           SKY/WX    TMP DP  RH WIND       PRES   REMARKS
RAPID CTY ARPT SUNNY     58  31  35 W10       30.25S
PIERRE         SUNNY     51  37  58 W8        30.15S
CUSTER         CLOUDY    46  26  45 W7        30.32R
ELLSWORTH AFB  SUNNY     56  31  39 W5        30.25R
PHILIP         SUNNY     54  36  50 W10       30.21S
PINE RIDGE     MOSUNNY   44  36  73 CALM      30.28R
WINNER         FAIR      59  35  40 W13       30.18S
$$

SDZ004>011-016>023-039-040-241400-
NORTHEAST SOUTH DAKOTA

CITY           SKY/WX    TMP DP  RH WIND       PRES   REMARKS
ABERDEEN       CLOUDY    51  43  74 W6        30.09S
WATERTOWN      CLOUDY    51  41  68 W12       30.07F
BROOKINGS      PTSUNNY   52  43  71 SW9       30.10S
SISSETON         N/A     51  45  79 W10       30.04F
$$

SDZ017-020-022-023-036>040-048>070-241400-
SOUTHEAST SOUTH DAKOTA

CITY           SKY/WX    TMP DP  RH WIND       PRES   REMARKS
SIOUX FALLS    MOSUNNY   57  46  66 W5        30.11F
HURON          PTSUNNY   53  43  68 SW8       30.11S
CHAMBERLAIN    SUNNY     54  38  56 W13G18    30.16S
MITCHELL       SUNNY     56  42  59 W7        30.14S
YANKTON        SUNNY     56  44  64 SW6       30.15S
$$

ABBREVIATIONS USED IN REMARKS
   TC - TEMPERATURE IN CELSIUS
  WCI - WIND CHILL INDEX
   HX - HEAT INDEX
  VSB - VISIBILITY




USA.gov is the U.S. government's official web portal to all federal, state and local government web resources and services.